Location: Newport
(51.9833°N, 0.2500°E)
Time: 05:08:47
(UTC+00:00)

Daily predictions for brighter satellites

Satellite Brightness Start Highest point End
(mag) Time Altitude Azimuth Time Altitude Azimuth Time Altitude Azimuth
ACS3 Solar Sail 3.9 02:21:36 10° NNE 02:24:02 21° NE 02:24:02 21° NE
COSMOS 2428 4.1 03:21:07 33° NE 03:21:07 33° NE 03:24:14 10° NE
CZ-2C R/B 4.3 03:17:10 10° NE 03:21:32 28° E 03:21:32 28° E
NOSS 3-1 (A) 4.2 03:37:27 41° E 03:37:27 41° E 03:41:44 10° NE
Cosmos 2237 Rocket 3.2 03:37:34 42° ESE 03:37:34 42° ESE 03:42:51 10° NE
ARGOS 4.0 03:35:10 10° NNE 03:40:21 47° E 03:40:21 47° E
CENTAUR R/B 3.7 03:39:59 41° NNW 03:42:28 53° NNE 03:51:19 10° ESE
Cosmos 2369 Rocket 3.8 03:41:31 25° N 03:43:18 30° NE 03:48:16 10° ESE
ADEOS II 4.3 03:39:44 10° N 03:40:38 15° N 03:40:38 15° N
Cosmos 2360 Rocket 4.1 03:52:38 20° N 03:52:38 20° N 03:54:49 10° NNE
SJ 16-02 3.2 03:51:38 27° E 03:51:38 27° E 03:54:01 10° SE
Cosmos 2322 Rocket 4.1 03:57:46 19° N 03:57:46 19° N 04:00:01 10° NNE
ADEOS Rocket 3.3 03:49:27 10° NNE 03:55:46 73° NW 03:55:46 73° NW
Cosmos 2333 Rocket 4.1 03:59:30 19° N 03:59:30 19° N 04:01:52 10° NNE
CZ-2D R/B 4.4 03:58:46 10° N 03:59:17 13° N 03:59:17 13° N
SL-16 R/B 4.2 04:08:31 16° N 04:08:31 16° N 04:10:37 10° NNE
USA 234 3.1 04:02:22 10° ESE 04:08:58 88° SSW 04:09:48 71° WNW
ACS3 Solar Sail 2.4 04:04:12 10° N 04:08:08 41° NNW 04:08:08 41° NNW
COSMOS 2455 4.2 04:12:21 26° N 04:12:21 26° N 04:16:33 10° NNE
Cosmos 371 Rocket 3.8 04:11:28 54° NE 04:11:45 55° ENE 04:16:29 10° SE
Resurs 1-4 Rocket 4.4 04:10:53 10° N 04:11:20 12° N 04:11:20 12° N
Cosmos 1864 Rocket 4.3 04:08:55 10° NNW 04:15:24 75° WSW 04:21:33 10° S
Cosmos 2292 Rocket 4.4 04:16:36 25° S 04:19:46 72° E 04:26:17 10° NNE
Cosmos 304 Rocket 4.0 04:20:02 65° NE 04:20:12 65° ENE 04:24:56 10° SE
Cosmos 2061 Rocket 4.1 04:14:52 10° N 04:21:06 74° ENE 04:27:17 10° SSE
Cosmos 1656 Rocket 3.8 04:20:08 50° NNW 04:21:37 74° ENE 04:27:18 10° SE
Gbstr 26 Del rocket 3.4 04:22:01 83° ESE 04:22:01 83° ESE 04:27:40 10° E
Lacrosse 5 rocket 3.1 04:23:30 24° ENE 04:23:30 24° ENE 04:25:09 10° E
Lacrosse 4 Rocket 3.8 04:22:06 14° NNE 04:22:51 15° NNE 04:25:12 10° ENE
Meteor 1-24 Rocket 3.5 04:23:19 76° NW 04:23:19 76° NW 04:28:29 10° N
Cosmos 2219 Rocket 3.7 04:26:24 23° NNW 04:26:24 23° NNW 04:29:37 10° NNE
Cosmos 1725 Rocket 3.9 04:23:10 10° NNW 04:29:26 67° W 04:35:40 10° S
Cosmos 2233 Rocket 3.9 04:25:22 10° N 04:31:43 88° W 04:37:59 10° S
Cosmos 2251 Rocket 3.8 04:36:55 52° SSW 04:36:55 52° SSW 04:41:17 10° S
IRS P6 4.4 04:30:54 10° NNE 04:36:13 75° WNW 04:36:55 64° SW
NOSS 3-1 (C) 3.6 04:37:44 45° NNW 04:37:50 45° NNW 04:43:51 10° NE
Helios 1A Rocket 3.7 04:35:25 10° SE 04:38:34 39° ENE 04:38:59 37° NE
Meteor 2-21 Rocket 4.3 04:36:39 43° SW 04:38:38 67° WNW 04:44:41 10° N
NOSS 2-2 (C) 4.3 04:39:27 37° NNE 04:39:52 38° NE 04:44:07 10° ESE
Cosmos 1420 Rocket 4.0 04:37:58 33° SSW 04:40:23 82° ESE 04:45:44 10° NNE
H-2A R/B 3.8 04:36:19 10° N 04:37:38 17° N 04:37:38 17° N
SL-16 R/B 3.5 04:35:40 10° S 04:40:55 40° ESE 04:46:11 10° NE
PAYLOAD A 3.9 04:37:14 10° NNE 04:42:39 81° WNW 04:45:44 26° SSW
SL-08 RB Rocket 3.5 04:39:32 10° NNE 04:44:01 76° WNW 04:44:01 76° WNW
Cosmos 1812 4.0 04:46:27 26° SE 04:46:27 26° SE 04:48:03 10° SSE
NOSS 0 Rocket 4.0 04:48:18 48° W 04:49:24 55° NW 04:55:28 10° NNE
SL-08 R/B 4.4 04:44:19 10° NNW 04:50:20 58° W 04:56:23 10° S
Cosmos 1802 Rocket 4.3 04:44:56 10° NNW 04:51:41 42° WSW 04:56:43 10° SSW
CZ-2C R/B 2.6 04:54:55 10° N 04:59:49 51° WNW 05:00:45 45° WSW
Cosmos 1939 Rocket 2.5 04:57:08 10° N 05:00:59 73° WNW 05:01:05 72° W
NOSS 2-2 (D) 4.5 05:00:57 28° N 05:02:08 35° NE 05:06:12 10° ESE
COSMOS 2428 3.5 05:03:07 31° NW 05:03:15 32° NW 05:08:19 10° NNE
Meteor 2-5 Rocket 4.0 05:02:08 37° WSW 05:03:44 46° WNW 05:09:17 10° N
Cosmos 2084 4.3 05:03:54 29° NNW 05:05:21 40° NNE 05:09:11 10° ESE
Cosmos 1980 3.9 05:04:29 40° W 05:06:03 51° NW 05:11:36 10° NNE
SJ-11-01 4.2 05:01:25 10° NNE 05:06:08 87° E 05:10:51 10° SSW
Cosmos 2263 4.4 05:06:19 15° NNW 05:11:09 74° ENE 05:16:55 10° SE
NOSS 3-2 (A) 4.2 05:06:32 21° NW 05:11:31 65° NE 05:19:56 10° ESE
Cosmos 2123 Rocket 4.3 05:09:25 28° WSW 05:11:57 40° WNW 05:17:46 10° N
USA 229 DEB 4.5 05:06:23 10° SSW 05:12:02 47° ESE 05:18:22 10° NE
USA 229 4.5 05:06:37 10° SSW 05:12:15 47° ESE 05:18:34 10° NE
USA 267 3.3 05:07:03 10° ENE 05:13:37 80° SSE 05:18:49 17° SW
Cosmos 2016 Rocket 4.5 05:08:25 10° NNW 05:14:09 36° W 05:19:49 10° SSW
Cosmos 676 Rocket 4.1 05:14:56 28° NW 05:17:23 51° WSW 05:22:23 10° S
ARGOS 3.7 05:15:40 10° N 05:20:31 34° WNW 05:21:49 30° W
Cosmos 2237 Rocket 2.5 05:19:25 30° W 05:21:37 44° NW 05:27:01 10° NNE
Cosmos 2297 3.6 05:17:57 17° NNW 05:22:23 79° WSW 05:28:00 10° SSE
Okean 2 Rocket 3.6 05:18:19 10° N 05:22:39 59° ENE 05:26:58 10° SSE
ADEOS II 4.2 05:21:16 10° NNW 05:21:26 10° NNW 05:21:26 10° NNW
Aureole 3 3.9 05:20:33 10° SSW 05:26:17 68° WNW 05:31:03 10° N
NOSS 3-1 (A) 3.6 05:24:50 30° W 05:27:02 46° NNW 05:33:07 10° NE
Cosmos 2369 Rocket 2.1 05:23:19 17° NW 05:27:51 71° WSW 05:33:30 10° SSE
SJ 16-02 2.1 05:28:15 30° WSW 05:28:15 30° WSW 05:31:50 10° SSW
Cosmos 2056 Rocket 3.5 05:23:55 10° SW 05:29:19 69° WNW 05:34:42 10° NNE
Cosmos 1513 Rocket 4.5 05:23:36 10° NNW 05:30:02 77° W 05:36:20 10° S
SKYMED 2 3.7 05:26:54 10° S 05:31:07 51° W 05:35:23 10° NNW
ATLAS 3B R/B 3.4 05:25:49 10° SSW 05:33:18 68° SE 05:41:09 10° NE
CENTAUR R/B 3.3 05:27:06 17° NW 05:33:45 72° SW 05:43:04 10° SSE
Cosmos 2360 Rocket 4.2 05:34:23 11° NNW 05:36:01 12° NNW 05:38:20 10° N
COSMO-SKYMED 1 2.4 05:32:19 10° S 05:36:24 60° WSW 05:40:30 10° NNW
IRS-1D 3.3 05:32:27 10° NNE 05:37:22 67° WNW 05:42:15 10° SSW
FengYun 1-2 T 4.3 05:32:53 10° N 05:38:21 55° WNW 05:43:48 10° SW
ADEOS Rocket 4.4 05:36:00 10° N 05:40:50 22° NW 05:42:41 20° WNW
Cosmos 2322 Rocket 4.2 05:39:34 10° NNW 05:41:38 12° N 05:43:44 10° N
USA 306 2.3 05:41:00 29° WSW 05:42:35 89° SSE 05:46:30 10° ENE
BREEZE-M DEB (TANK) 4.5 05:41:44 10° SSW 05:43:48 18° SE 05:46:57 10° E
Cosmos 2333 Rocket 4.3 05:41:49 10° NNW 05:44:00 12° N 05:46:12 10° NNE
Cosmos 1025 Rocket 3.6 05:41:21 10° S 05:45:39 62° E 05:49:58 10° NNE
Cosmos 1371 Rocket 4.2 05:43:39 10° SW 05:48:50 52° WNW 05:54:05 10° NNE
Cosmos 968 Rocket 3.6 05:45:02 10° NNW 05:50:04 54° WSW 05:55:09 10° S
Cosmos 1674 Rocket 3.5 05:46:15 10° S 05:50:41 88° W 05:55:08 10° N
Cosmos 371 Rocket 4.3 05:50:01 20° WNW 05:51:38 24° W 05:55:30 10° SSW
ACS3 Solar Sail 3.3 05:48:45 10° NNW 05:51:57 15° NW 05:52:15 15° NW
USA 234 3.9 05:46:31 10° SSE 05:52:29 37° SW 05:57:09 16° WNW
Cosmos 1741 Rocket 4.0 05:47:51 10° NNW 05:53:09 67° WSW 05:58:24 10° SSE
SL-16 R/B 4.4 05:52:05 10° NNW 05:53:35 11° N 05:55:06 10° NNE
CZ-4 R/B 4.0 05:51:56 10° N 05:56:39 50° WNW 06:01:14 10° SW
Cosmos 1400 Rocket 3.0 05:53:43 10° NNW 05:57:14 41° W 06:00:41 10° SSW
Meteor 1-21 Rocket 4.2 05:51:56 10° SSW 05:57:36 62° WNW 06:03:12 10° N
Cosmos 1484 Rocket 2.5 05:54:53 10° NNE 05:58:27 89° ESE 06:01:59 10° SSW
NOSS 2-2 (E) 3.6 05:56:07 15° NW 05:59:02 71° NE 06:03:51 10° SE
Lacrosse 5 rocket 0.7 05:57:09 22° WNW 05:59:13 74° SSW 06:02:31 10° SE
USA 59 Rocket 1.4 05:59:50 11° NNW 06:00:33 12° N 06:01:42 10° NNE
Cosmos 2221 Rocket 3.8 05:56:22 10° S 06:00:53 79° E 06:05:26 10° NNE
Lacrosse 4 Rocket 1.8 05:57:38 10° NNW 06:01:34 57° NE 06:05:26 10° SE
NOAA 12 4.2 05:58:18 10° N 06:03:28 52° WNW 06:08:35 10° SW
Cosmos 2151 Rocket 3.9 06:00:43 10° NNW 06:05:00 45° W 06:09:15 10° SSW
Cosmos 1110 Rocket 4.0 05:59:47 10° SSW 06:05:05 84° WNW 06:10:26 10° NNE
Cosmos 1455 Rocket 3.5 06:01:05 10° N 06:05:25 65° ENE 06:09:45 10° SSE
Thor Agena Rocket 4.3 06:02:14 10° NNE 06:07:24 58° ESE 06:12:28 10° S
Gbstr 26 Del rocket 3.8 06:04:03 15° W 06:08:24 77° SSW 06:14:51 10° ESE
Cosmos 2219 Rocket 4.2 06:08:45 10° NW 06:10:57 12° NNW 06:13:09 10° N
Helios 1A Rocket 3.9 06:09:04 10° SW 06:11:25 18° W 06:12:38 15° WNW
Meteor 2-17 Rocket 4.4 06:05:48 10° SSW 06:11:53 79° WNW 06:18:02 10° N
Sich 1 Rocket 3.7 06:07:51 10° NNW 06:12:19 57° W 06:16:43 10° S
Cosmos 1812 4.3 06:18:19 10° WSW 06:18:19 10° WSW 06:18:28 10° WSW
Cosmos 1378 Rocket 4.0 06:14:33 10° SW 06:18:30 36° WNW 06:22:29 10° N
Cosmos 332 Rocket 4.2 06:16:08 10° NW 06:20:38 41° WSW 06:25:05 10° S
Okean 1 Rocket 3.3 06:18:33 10° NNW 06:22:41 44° W 06:26:46 10° SSW
SL-16 R/B 2.5 06:19:30 10° WSW 06:24:58 46° NW 06:30:28 10° NNE
Cosmos 1464 Rocket 4.3 06:23:05 10° NNW 06:28:50 42° W 06:34:29 10° SSW
NOSS 2-2 (C) 4.3 06:25:29 11° WNW 06:29:01 38° SW 06:33:50 10° SSE
Cosmos 1634 Rocket 4.1 06:24:00 10° N 06:30:14 85° E 06:36:24 10° S
Orbus 7S? 3.3 06:28:33 10° W 06:32:18 42° NNW 06:34:52 10° ENE
Cosmos 1656 4.3 06:29:54 10° NNW 06:35:32 60° NE 06:41:10 10° SE
CZ-2C R/B 4.3 06:35:16 10° NNW 06:36:48 11° NW 06:38:21 10° WNW
ARIANE 5 R/B 3.0 06:33:14 10° NNE 06:38:18 67° ESE 06:43:25 10° S
Cosmos 1452 Rocket 3.5 06:33:11 10° SW 06:38:22 63° WNW 06:43:35 10° NNE
IGS 5A 3.5 06:36:09 10° N 06:40:04 51° WNW 06:43:57 10° SW
Cosmos 2034 Rocket 4.3 06:34:18 10° NNW 06:40:25 51° W 06:46:31 10° SSW
SL-08 R/B 3.8 06:36:19 10° SSE 06:40:50 62° ENE 06:45:23 10° N
NOSS 3-2 (C) 4.1 06:34:51 10° NW 06:41:56 86° NE 06:50:35 10° SE
Cosmos 2084 3.9 06:40:12 10° WNW 06:44:02 40° SW 06:47:47 10° SSE
YAOGAN 11 4.5 06:40:48 10° SSE 06:45:16 72° ENE 06:49:44 10° NNW
